Location: Zagreb
(45.8000°N, 16.0000°E)
Time: 20:10:45
(UTC+01:00)

YUBILEINY - Pass Details

Date: 08 November 2020
Orbit: 1478 x 1509 km, 82.5° (Epoch: 01 December)

Event Time Altitude Azimuth Distance (km) Brightness Sun altitude
Rises 20:20:28 0° 351° (N) 4,610 ? -39.7°
Reaches altitude 10° 20:23:22 10° 352° (N) 3,627 ? -40.1°
Enters shadow 20:28:10 38° 359° (N) 2,125 ? -40.9°
